Time,TemperatureF,DewpointF,PressureIn,WindDirection,WindDirectionDegrees,WindSpeedMPH,WindSpeedGustMPH,Humidity,HourlyPrecipIn,Conditions,Clouds,dailyrainin,SoftwareType,DateUTC
2013-03-07 00:01:00,38.5,38.0,30.00,North,4,0.0,0.0,98,0.00,,---,0.16,VWS V14.01,2013-03-07 08:01:00,
2013-03-07 00:11:00,38.4,38.1,30.00,North,4,0.0,0.0,99,0.00,,---,0.00,VWS V14.01,2013-03-07 08:11:00,
2013-03-07 00:20:00,38.5,38.2,30.00,North,4,0.0,0.0,99,0.00,,---,0.00,VWS V14.01,2013-03-07 08:20:00,
2013-03-07 00:31:00,38.6,38.3,29.99,North,4,0.0,0.0,99,0.00,,---,0.00,VWS V14.01,2013-03-07 08:31:00,
2013-03-07 00:41:00,38.5,38.2,30.00,North,4,0.0,0.0,99,0.00,,---,0.00,VWS V14.01,2013-03-07 08:41:00,
2013-03-07 00:50:00,38.3,38.0,30.00,North,4,0.0,0.0,99,0.00,,---,0.00,VWS V14.01,2013-03-07 08:50:00,
2013-03-07 01:01:00,38.3,38.0,30.00,North,4,0.0,0.0,99,0.00,,---,0.00,VWS V14.01,2013-03-07 09:01:00,
2013-03-07 01:11:00,38.2,37.9,29.99,North,4,0.0,0.0,99,0.00,,---,0.00,VWS V14.01,2013-03-07 09:11:00,
2013-03-07 01:20:00,38.1,37.8,29.99,North,4,0.0,0.0,99,0.00,,---,0.00,VWS V14.01,2013-03-07 09:20:00,
2013-03-07 01:31:00,38.0,37.7,29.99,North,4,0.0,0.0,99,0.00,,---,0.00,VWS V14.01,2013-03-07 09:31:00,
2013-03-07 01:41:00,38.1,37.8,29.99,North,4,0.0,0.0,99,0.00,,---,0.00,VWS V14.01,2013-03-07 09:41:00,
2013-03-07 01:50:00,38.3,38.3,29.99,North,4,0.0,0.0,100,0.00,,---,0.00,VWS V14.01,2013-03-07 09:50:00,
2013-03-07 02:01:00,38.6,38.6,29.99,North,4,0.0,0.0,100,0.00,,---,0.00,VWS V14.01,2013-03-07 10:01:00,
2013-03-07 02:11:00,38.7,38.7,29.99,North,4,0.0,0.0,100,0.00,,---,0.00,VWS V14.01,2013-03-07 10:11:00,
2013-03-07 02:20:00,38.7,38.7,29.99,North,4,0.0,0.0,100,0.00,,---,0.00,VWS V14.01,2013-03-07 10:20:00,
2013-03-07 02:31:00,38.4,38.1,29.98,North,4,0.0,0.0,99,0.00,,---,0.00,VWS V14.01,2013-03-07 10:31:00,
2013-03-07 02:41:00,38.3,38.0,29.98,North,4,0.0,0.0,99,0.00,,---,0.00,VWS V14.01,2013-03-07 10:41:00,
2013-03-07 02:50:00,38.4,38.4,29.97,North,4,0.0,1.0,100,0.00,,---,0.00,VWS V14.01,2013-03-07 10:50:00,
2013-03-07 03:01:00,38.5,38.5,29.97,North,4,0.0,0.0,100,0.00,,---,0.00,VWS V14.01,2013-03-07 11:01:00,
2013-03-07 03:11:00,38.6,38.6,29.97,North,4,0.0,0.0,100,0.00,,---,0.00,VWS V14.01,2013-03-07 11:11:00,
2013-03-07 03:20:00,38.8,38.8,29.96,North,4,0.0,0.0,100,0.00,,---,0.00,VWS V14.01,2013-03-07 11:20:00,
2013-03-07 03:31:00,39.0,39.0,29.95,North,4,0.0,0.0,100,0.00,,---,0.00,VWS V14.01,2013-03-07 11:31:00,
2013-03-07 03:41:00,39.0,39.0,29.96,North,4,0.0,0.0,100,0.00,,---,0.00,VWS V14.01,2013-03-07 11:41:00,
2013-03-07 03:50:00,39.0,39.0,29.96,North,4,0.0,0.0,100,0.00,,---,0.00,VWS V14.01,2013-03-07 11:50:00,
2013-03-07 04:01:00,39.0,39.0,29.96,North,4,0.0,0.0,100,0.00,,---,0.00,VWS V14.01,2013-03-07 12:01:00,
2013-03-07 04:11:00,39.1,39.1,29.95,North,4,0.0,0.0,100,0.00,,---,0.00,VWS V14.01,2013-03-07 12:11:00,
2013-03-07 04:20:00,39.1,39.1,29.95,North,4,0.0,0.0,100,0.00,,---,0.00,VWS V14.01,2013-03-07 12:20:00,
2013-03-07 04:31:00,39.2,39.2,29.95,North,4,0.0,0.0,100,0.00,,---,0.00,VWS V14.01,2013-03-07 12:31:00,
2013-03-07 04:41:00,39.3,39.3,29.95,North,4,0.0,0.0,100,0.00,,---,0.00,VWS V14.01,2013-03-07 12:41:00,
2013-03-07 04:50:00,39.3,39.3,29.95,North,4,0.0,1.0,100,0.00,,---,0.00,VWS V14.01,2013-03-07 12:50:00,
2013-03-07 05:01:00,39.4,39.4,29.95,North,4,0.0,0.0,100,0.00,,---,0.00,VWS V14.01,2013-03-07 13:01:00,
2013-03-07 05:11:00,39.3,39.3,29.95,North,4,0.0,1.0,100,0.00,,---,0.00,VWS V14.01,2013-03-07 13:11:00,
2013-03-07 05:20:00,39.2,39.2,29.95,North,4,0.0,1.0,100,0.00,,---,0.00,VWS V14.01,2013-03-07 13:20:00,
2013-03-07 05:31:00,39.2,39.2,29.95,North,4,0.0,0.0,100,0.00,,---,0.00,VWS V14.01,2013-03-07 13:31:00,
2013-03-07 05:41:00,39.2,39.2,29.96,North,4,0.0,1.0,100,0.00,,---,0.00,VWS V14.01,2013-03-07 13:41:00,
2013-03-07 05:50:00,39.3,39.3,29.95,North,4,0.0,0.0,100,0.00,,---,0.00,VWS V14.01,2013-03-07 13:50:00,
2013-03-07 06:01:00,39.2,39.2,29.95,North,4,0.0,0.0,100,0.00,,---,0.00,VWS V14.01,2013-03-07 14:01:00,
2013-03-07 06:11:00,39.0,39.0,29.95,North,4,0.0,1.0,100,0.00,,---,0.00,VWS V14.01,2013-03-07 14:11:00,
2013-03-07 06:20:00,38.9,38.9,29.95,North,4,0.0,0.0,100,0.00,,---,0.00,VWS V14.01,2013-03-07 14:20:00,
2013-03-07 06:31:00,38.9,38.9,29.95,North,4,0.0,0.0,100,0.00,,---,0.00,VWS V14.01,2013-03-07 14:31:00,
2013-03-07 06:41:00,38.8,38.8,29.95,North,4,0.0,0.0,100,0.00,,---,0.00,VWS V14.01,2013-03-07 14:41:00,
2013-03-07 06:50:00,38.8,38.8,29.94,North,4,0.0,0.0,100,0.00,,---,0.00,VWS V14.01,2013-03-07 14:50:00,
2013-03-07 07:01:00,38.7,38.7,29.94,North,4,0.0,0.0,100,0.00,,---,0.00,VWS V14.01,2013-03-07 15:01:00,
2013-03-07 07:11:00,38.8,38.8,29.94,North,4,0.0,0.0,100,0.00,,---,0.00,VWS V14.01,2013-03-07 15:11:00,
2013-03-07 07:20:00,38.8,38.8,29.94,North,4,0.0,0.0,100,0.00,,---,0.00,VWS V14.01,2013-03-07 15:20:00,
2013-03-07 07:31:00,38.9,38.9,29.94,North,4,0.0,0.0,100,0.00,,---,0.00,VWS V14.01,2013-03-07 15:31:00,
2013-03-07 07:41:00,38.9,38.9,29.95,North,4,0.0,1.0,100,0.00,,---,0.00,VWS V14.01,2013-03-07 15:41:00,
2013-03-07 07:51:00,38.9,38.9,29.94,North,4,0.0,0.0,100,0.00,,---,0.00,VWS V14.01,2013-03-07 15:51:00,
2013-03-07 08:01:00,39.0,39.0,29.94,North,4,0.0,0.0,100,0.00,,---,0.00,VWS V14.01,2013-03-07 16:01:00,
2013-03-07 08:11:00,39.2,39.2,29.94,North,4,0.0,0.0,100,0.00,,---,0.00,VWS V14.01,2013-03-07 16:11:00,
2013-03-07 08:21:00,39.4,39.4,29.95,North,4,0.0,0.0,100,0.00,,---,0.00,VWS V14.01,2013-03-07 16:21:00,
2013-03-07 08:31:00,39.5,39.5,29.95,North,4,0.0,0.0,100,0.00,,---,0.00,VWS V14.01,2013-03-07 16:31:00,
2013-03-07 08:41:00,39.9,39.9,29.96,North,4,0.0,0.0,100,0.00,,---,0.00,VWS V14.01,2013-03-07 16:41:00,
2013-03-07 08:51:00,40.3,40.3,29.95,North,4,0.0,0.0,100,0.00,,---,0.00,VWS V14.01,2013-03-07 16:51:00,
2013-03-07 09:01:00,40.8,40.8,29.95,North,4,0.0,0.0,100,0.00,,---,0.00,VWS V14.01,2013-03-07 17:01:00,
2013-03-07 09:11:00,41.2,41.2,29.95,North,4,0.0,0.0,100,0.00,,---,0.00,VWS V14.01,2013-03-07 17:11:00,
2013-03-07 09:21:00,41.5,41.5,29.95,North,4,0.0,0.0,100,0.00,,---,0.00,VWS V14.01,2013-03-07 17:21:00,
2013-03-07 09:31:00,41.8,41.8,29.95,North,4,0.0,0.0,100,0.00,,---,0.00,VWS V14.01,2013-03-07 17:31:00,
2013-03-07 09:41:00,42.3,42.3,29.95,North,4,0.0,0.0,100,0.00,,---,0.00,VWS V14.01,2013-03-07 17:41:00,
2013-03-07 09:51:00,42.8,42.8,29.95,NNW,343,0.0,0.0,100,0.00,,---,0.00,VWS V14.01,2013-03-07 17:51:00,
2013-03-07 10:01:00,43.3,42.8,29.95,NNW,343,0.0,1.0,98,0.00,,---,0.00,VWS V14.01,2013-03-07 18:01:00,
2013-03-07 10:11:00,44.1,43.0,29.95,NW,308,0.0,0.0,96,0.00,,---,0.00,VWS V14.01,2013-03-07 18:11:00,
2013-03-07 10:21:00,44.8,43.7,29.94,NW,307,0.0,0.0,96,0.00,,---,0.00,VWS V14.01,2013-03-07 18:21:00,
2013-03-07 10:31:00,45.9,44.0,29.94,NNW,333,0.0,0.0,93,0.00,,---,0.00,VWS V14.01,2013-03-07 18:31:00,
2013-03-07 10:41:00,46.9,44.7,29.94,NNW,333,0.0,0.0,92,0.00,,---,0.00,VWS V14.01,2013-03-07 18:41:00,
2013-03-07 10:51:00,47.5,44.1,29.94,NNW,333,0.0,0.0,88,0.00,,---,0.00,VWS V14.01,2013-03-07 18:51:00,
2013-03-07 11:01:00,48.2,44.5,29.94,NNW,333,0.0,0.0,87,0.00,,---,0.00,VWS V14.01,2013-03-07 19:01:00,
2013-03-07 11:11:00,48.7,44.1,29.94,North,349,0.0,1.0,84,0.00,,---,0.00,VWS V14.01,2013-03-07 19:11:00,
2013-03-07 11:21:00,48.9,44.0,29.94,North,7,1.0,1.0,83,0.00,,---,0.00,VWS V14.01,2013-03-07 19:21:00,
2013-03-07 11:31:00,49.4,43.8,29.94,NE,39,0.0,1.0,81,0.00,,---,0.00,VWS V14.01,2013-03-07 19:31:00,
2013-03-07 11:41:00,49.5,42.9,29.94,NNE,31,1.0,2.0,78,0.00,,---,0.00,VWS V14.01,2013-03-07 19:41:00,
2013-03-07 11:51:00,49.7,43.5,29.94,NE,35,0.0,2.0,79,0.00,,---,0.00,VWS V14.01,2013-03-07 19:51:00,
2013-03-07 12:01:00,49.6,43.3,29.93,NNE,18,0.0,0.0,79,0.00,,---,0.00,VWS V14.01,2013-03-07 20:01:00,
2013-03-07 12:11:00,49.4,42.5,29.93,NW,315,0.0,0.0,77,0.00,,---,0.00,VWS V14.01,2013-03-07 20:11:00,
2013-03-07 12:21:00,49.4,42.5,29.93,NW,315,0.0,0.0,77,0.00,,---,0.00,VWS V14.01,2013-03-07 20:21:00,
2013-03-07 12:31:00,49.7,42.8,29.92,NW,314,0.0,0.0,77,0.00,,---,0.00,VWS V14.01,2013-03-07 20:31:00,
2013-03-07 12:41:00,49.8,43.2,29.92,NW,315,0.0,0.0,78,0.00,,---,0.00,VWS V14.01,2013-03-07 20:41:00,
2013-03-07 12:51:00,50.2,43.9,29.92,NNW,333,0.0,0.0,79,0.00,,---,0.00,VWS V14.01,2013-03-07 20:51:00,
2013-03-07 13:01:00,50.3,43.4,29.91,West,276,0.0,2.0,77,0.00,,---,0.00,VWS V14.01,2013-03-07 21:01:00,
2013-03-07 13:11:00,50.3,42.7,29.91,WNW,294,0.0,0.0,75,0.00,,---,0.00,VWS V14.01,2013-03-07 21:11:00,
2013-03-07 13:21:00,50.3,42.7,29.90,WNW,293,0.0,1.0,75,0.00,,---,0.00,VWS V14.01,2013-03-07 21:21:00,
2013-03-07 13:31:00,50.6,43.3,29.90,WNW,290,0.0,2.0,76,0.00,,---,0.00,VWS V14.01,2013-03-07 21:31:00,
2013-03-07 13:41:00,50.6,43.0,29.90,WNW,290,0.0,0.0,75,0.00,,---,0.00,VWS V14.01,2013-03-07 21:41:00,
2013-03-07 13:51:00,50.7,43.4,29.90,WNW,290,0.0,0.0,76,0.00,,---,0.00,VWS V14.01,2013-03-07 21:51:00,
2013-03-07 14:01:00,51.0,44.0,29.89,WNW,291,0.0,0.0,77,0.00,,---,0.00,VWS V14.01,2013-03-07 22:01:00,
2013-03-07 14:11:00,51.2,43.2,29.89,West,274,0.0,2.0,74,0.00,,---,0.00,VWS V14.01,2013-03-07 22:11:00,
2013-03-07 14:21:00,51.5,43.5,29.89,North,5,1.0,1.0,74,0.00,,---,0.00,VWS V14.01,2013-03-07 22:21:00,
2013-03-07 14:31:00,51.7,40.7,29.89,NNE,32,0.0,2.0,66,0.00,,---,0.00,VWS V14.01,2013-03-07 22:31:00,
2013-03-07 14:41:00,51.8,40.4,29.89,NW,305,0.0,2.0,65,0.00,,---,0.00,VWS V14.01,2013-03-07 22:41:00,
2013-03-07 14:51:00,51.7,41.8,29.89,NNE,17,0.0,1.0,69,0.00,,---,0.00,VWS V14.01,2013-03-07 22:51:00,
2013-03-07 15:01:00,51.9,42.8,29.89,NNE,17,0.0,0.0,71,0.00,,---,0.00,VWS V14.01,2013-03-07 23:01:00,
2013-03-07 15:11:00,51.7,39.9,29.88,NNW,331,0.0,1.0,64,0.00,,---,0.00,VWS V14.01,2013-03-07 23:11:00,
2013-03-07 15:21:00,51.6,43.2,29.89,NNW,331,0.0,0.0,73,0.00,,---,0.00,VWS V14.01,2013-03-07 23:21:00,
2013-03-07 15:36:00,51.3,40.3,29.89,NE,56,1.0,1.0,66,0.00,,---,0.00,VWS V14.01,2013-03-07 23:36:00,
2013-03-07 15:41:00,51.2,38.6,29.88,NE,56,0.0,1.0,62,0.00,,---,0.00,VWS V14.01,2013-03-07 23:41:00,
2013-03-07 15:51:00,51.1,42.0,29.89,NE,56,0.0,1.0,71,0.00,,---,0.00,VWS V14.01,2013-03-07 23:51:00,
2013-03-07 16:01:00,50.7,42.0,29.88,NNW,343,0.0,2.0,72,0.00,,---,0.00,VWS V14.01,2013-03-08 00:01:00,
2013-03-07 16:11:00,50.7,40.5,29.88,West,265,0.0,3.0,68,0.00,,---,0.00,VWS V14.01,2013-03-08 00:11:00,
2013-03-07 16:21:00,50.4,40.2,29.88,West,264,0.0,0.0,68,0.00,,---,0.00,VWS V14.01,2013-03-08 00:21:00,
2013-03-07 16:31:00,49.9,40.5,29.88,West,265,0.0,1.0,70,0.00,,---,0.00,VWS V14.01,2013-03-08 00:31:00,
2013-03-07 16:41:00,49.6,40.6,29.88,West,265,0.0,1.0,71,0.00,,---,0.00,VWS V14.01,2013-03-08 00:41:00,
2013-03-07 16:51:00,49.5,41.2,29.88,West,265,0.0,0.0,73,0.00,,---,0.00,VWS V14.01,2013-03-08 00:51:00,
2013-03-07 17:01:00,49.1,42.5,29.89,ENE,73,0.0,2.0,78,0.00,,---,0.00,VWS V14.01,2013-03-08 01:01:00,
2013-03-07 17:11:00,48.3,43.4,29.89,West,279,0.0,1.0,83,0.00,,---,0.00,VWS V14.01,2013-03-08 01:11:00,
2013-03-07 17:21:00,48.0,44.3,29.89,West,268,0.0,1.0,87,0.00,,---,0.00,VWS V14.01,2013-03-08 01:21:00,
2013-03-07 17:31:00,47.7,45.2,29.89,NW,308,0.0,0.0,91,0.00,,---,0.00,VWS V14.01,2013-03-08 01:31:00,
2013-03-07 17:41:00,47.0,45.1,29.89,WSW,258,0.0,1.0,93,0.00,,---,0.00,VWS V14.01,2013-03-08 01:41:00,
2013-03-07 17:51:00,46.8,45.2,29.89,WSW,258,0.0,0.0,94,0.00,,---,0.00,VWS V14.01,2013-03-08 01:51:00,
2013-03-07 18:01:00,46.5,45.1,29.89,West,260,0.0,0.0,95,0.01,,---,0.01,VWS V14.01,2013-03-08 02:01:00,
2013-03-07 18:11:00,46.2,44.8,29.89,West,260,0.0,0.0,95,0.01,,---,0.01,VWS V14.01,2013-03-08 02:11:00,
2013-03-07 18:21:00,45.8,44.4,29.89,West,260,0.0,0.0,95,0.01,,---,0.01,VWS V14.01,2013-03-08 02:21:00,
2013-03-07 18:31:00,45.5,44.4,29.89,West,259,0.0,0.0,96,0.01,,---,0.01,VWS V14.01,2013-03-08 02:31:00,
2013-03-07 18:36:00,45.3,44.2,29.89,WSW,258,1.0,1.0,96,0.01,,---,0.01,VWS V14.01,2013-03-08 02:36:00,
2013-03-07 18:51:00,44.7,43.6,29.89,WSW,257,0.0,1.0,96,0.01,,---,0.01,VWS V14.01,2013-03-08 02:51:00,
2013-03-07 19:01:00,44.5,43.7,29.89,West,260,0.0,0.0,97,0.01,,---,0.01,VWS V14.01,2013-03-08 03:01:00,
2013-03-07 19:06:00,44.4,43.3,29.89,West,260,0.0,0.0,96,0.00,,---,0.01,VWS V14.01,2013-03-08 03:06:00,
2013-03-07 19:11:00,44.3,43.2,29.89,West,260,0.0,0.0,96,0.00,,---,0.01,VWS V14.01,2013-03-08 03:11:00,
2013-03-07 19:21:00,44.2,43.4,29.89,West,259,0.0,1.0,97,0.00,,---,0.01,VWS V14.01,2013-03-08 03:21:00,
2013-03-07 19:31:00,44.4,43.6,29.89,West,260,0.0,0.0,97,0.00,,---,0.01,VWS V14.01,2013-03-08 03:31:00,
2013-03-07 19:36:00,44.4,43.6,29.89,West,260,0.0,0.0,97,0.00,,---,0.01,VWS V14.01,2013-03-08 03:36:00,
2013-03-07 19:41:00,44.4,43.6,29.89,West,260,0.0,0.0,97,0.00,,---,0.01,VWS V14.01,2013-03-08 03:41:00,
2013-03-07 19:51:00,44.2,43.4,29.89,West,260,0.0,0.0,97,0.00,,---,0.01,VWS V14.01,2013-03-08 03:51:00,
2013-03-07 20:01:00,44.0,43.2,29.89,West,259,0.0,0.0,97,0.00,,---,0.01,VWS V14.01,2013-03-08 04:01:00,
2013-03-07 20:06:00,43.9,43.1,29.89,West,260,0.0,0.0,97,0.00,,---,0.01,VWS V14.01,2013-03-08 04:06:00,
2013-03-07 20:21:00,43.8,43.0,29.89,West,260,0.0,0.0,97,0.00,,---,0.01,VWS V14.01,2013-03-08 04:21:00,
2013-03-07 20:31:00,43.8,43.0,29.89,West,262,0.0,0.0,97,0.00,,---,0.01,VWS V14.01,2013-03-08 04:31:00,
2013-03-07 20:36:00,43.8,43.3,29.89,West,262,0.0,0.0,98,0.00,,---,0.01,VWS V14.01,2013-03-08 04:36:00,
2013-03-07 20:51:00,43.8,43.3,29.89,West,274,0.0,0.0,98,0.00,,---,0.01,VWS V14.01,2013-03-08 04:51:00,
2013-03-07 21:01:00,43.6,43.1,29.89,West,274,0.0,0.0,98,0.00,,---,0.01,VWS V14.01,2013-03-08 05:01:00,
2013-03-07 21:07:00,43.5,43.0,29.89,West,274,0.0,0.0,98,0.00,,---,0.01,VWS V14.01,2013-03-08 05:07:00,
2013-03-07 21:21:00,43.5,43.0,29.89,WNW,296,0.0,0.0,98,0.00,,---,0.01,VWS V14.01,2013-03-08 05:21:00,
2013-03-07 21:22:00,43.5,43.0,29.89,WNW,297,0.0,0.0,98,0.00,,---,0.01,VWS V14.01,2013-03-08 05:22:00,
2013-03-07 21:31:00,43.5,43.0,29.90,WNW,297,0.0,0.0,98,0.00,,---,0.01,VWS V14.01,2013-03-08 05:31:00,
2013-03-07 21:37:00,43.4,42.9,29.90,WNW,296,0.0,0.0,98,0.00,,---,0.01,VWS V14.01,2013-03-08 05:37:00,
2013-03-07 21:51:00,43.1,42.6,29.89,WNW,296,0.0,0.0,98,0.00,,---,0.01,VWS V14.01,2013-03-08 05:51:00,
2013-03-07 22:01:00,42.9,42.4,29.90,WNW,296,0.0,0.0,98,0.00,,---,0.01,VWS V14.01,2013-03-08 06:01:00,
2013-03-07 22:07:00,42.9,42.4,29.90,WNW,297,0.0,0.0,98,0.00,,---,0.01,VWS V14.01,2013-03-08 06:07:00,
2013-03-07 22:21:00,42.6,42.1,29.90,WNW,296,0.0,0.0,98,0.00,,---,0.01,VWS V14.01,2013-03-08 06:21:00,
2013-03-07 22:31:00,42.4,41.9,29.89,WNW,297,0.0,0.0,98,0.00,,---,0.01,VWS V14.01,2013-03-08 06:31:00,
2013-03-07 22:37:00,42.2,41.7,29.89,WNW,297,0.0,0.0,98,0.00,,---,0.01,VWS V14.01,2013-03-08 06:37:00,
2013-03-07 22:51:00,41.7,41.2,29.89,WNW,296,0.0,0.0,98,0.00,,---,0.01,VWS V14.01,2013-03-08 06:51:00,
2013-03-07 23:01:00,41.7,41.4,29.89,WNW,296,0.0,0.0,99,0.00,,---,0.01,VWS V14.01,2013-03-08 07:01:00,
2013-03-07 23:07:00,41.6,41.3,29.89,WNW,297,0.0,0.0,99,0.00,,---,0.01,VWS V14.01,2013-03-08 07:07:00,
2013-03-07 23:21:00,41.3,40.8,29.89,WNW,297,0.0,0.0,98,0.00,,---,0.01,VWS V14.01,2013-03-08 07:21:00,
2013-03-07 23:31:00,40.9,40.4,29.89,WNW,297,0.0,0.0,98,0.00,,---,0.01,VWS V14.01,2013-03-08 07:31:00,
2013-03-07 23:37:00,40.7,40.2,29.89,WNW,297,0.0,0.0,98,0.00,,---,0.01,VWS V14.01,2013-03-08 07:37:00,
2013-03-07 23:51:00,40.5,40.2,29.88,WNW,296,0.0,0.0,99,0.00,,---,0.01,VWS V14.01,2013-03-08 07:51:00,